Regional Weather Roundup
Issued by NWS

Home | Current Version | Previous Version | Text Only | Print | Product List | Glossary On
Versions: 1 2 3 4 5 6 7 8 9 10 11 12 13 14 15 16 17 18 19 20 21 22 23 24 25 26 27 28 29 30 31 32 33 34 35 36 37 38 39 40 41 42 43 44 45 46 47 48 49 50
882
ASUS44 KMEG 180110
RWRTN
TENNESSEE HOURLY STATE WEATHER ROUNDUP
NATIONAL WEATHER SERVICE MEMPHIS TN
800 PM CDT TUE OCT 17 2017

TNZ002-004-019-021-049-052-054-088>092-180200-
WEST TENNESSEE

CITY           SKY/WX    TMP DP  RH WIND       PRES   REMARKS
MEMPHIS INTL   CLEAR     61  46  57 CALM      30.23R
NWS MEMPHIS      N/A     55 N/A N/A MISG        N/A
JACKSON        PTCLDY    53  51  93 CALM      30.25R
SOMERVILLE     CLEAR     54  52  94 CALM      30.23R
COVINGTON      CLEAR     52  46  82 CALM      30.24R
UNION CITY     CLEAR     50  46  87 CALM      30.24R
BOLIVAR        CLEAR     52  50  93 CALM      30.24R
PARIS          CLEAR     48  46  93 CALM      30.24R
HUNTINGDON     CLEAR     52  45  76 CALM      30.24R
LEXINGTON      CLEAR     52  50  93 CALM      30.25R
SELMER         CLEAR     52  48  87 CALM      30.24R
SAVANNAH       CLEAR     52  50  93 CALM      30.24R
$$

TNZ008-025-027-028-033-062-065-066-180200-
NORTH MIDDLE TENNESSEE

CITY           SKY/WX    TMP DP  RH WIND       PRES   REMARKS
NASHVILLE      MOCLDY    60  43  53 CALM      30.27S
PORTLAND       CLEAR     52  46  82 CALM      30.27R HAZE
CLARKSVILLE    CLEAR     53  45  74 CALM      30.26R
SMYRNA         PTCLDY    53  46  77 CALM      30.28
COOKEVILLE     CLEAR     45  43  93 CALM      30.27R
GALLATIN       CLEAR     54  45  71 CALM      30.29S
CROSSVILLE     CLEAR     49  42  77 CALM      30.30R
$$

TNZ061-075-076-078-094-096-097-180200-
SOUTH MIDDLE TENNESSEE

CITY           SKY/WX    TMP DP  RH WIND       PRES   REMARKS
FAYETTEVILLE   CLEAR     54  48  82 CALM      30.25S
TULLAHOMA      CLEAR     50  45  81 CALM      30.28R
WINCHESTER     CLEAR     50  46  87 CALM        N/A
COLUMBIA       CLEAR     52  46  82 CALM      30.24S
SHELBYVILLE    CLEAR     50  48  93 E3        30.26S FOG
$$

TNZ017-018-042-046-047-180200-
NORTHEAST TENNESSEE

CITY           SKY/WX    TMP DP  RH WIND       PRES   REMARKS
TRI CITIES     PTCLDY    49  43  80 CALM      30.30R
ELIZABETHTON   CLEAR     46  41  81 CALM      30.31S
$$

TNZ012-013-036-069-073-074-180200-
CENTRAL EAST TENNESSEE

CITY           SKY/WX    TMP DP  RH WIND       PRES   REMARKS
KNOXVILLE      PTCLDY    55  46  71 CALM      30.27R
OAK RIDGE      CLEAR     51  48  89 CALM      30.30R
DOWNTOWN KNOXV CLEAR     52  48  87 CALM      30.29R
GATLINBURG     CLEAR     50  45  81 CALM      30.28S
MORRISTOWN     CLEAR     52  41  66 CALM      30.29R
JACKSBORO      CLEAR     48  46  93 CALM      30.33R
$$

TNZ083-085-099-180200-
SOUTHEAST TENNESSEE

CITY           SKY/WX    TMP DP  RH WIND       PRES   REMARKS
CHATTANOOGA    PTCLDY    54  48  80 CALM      30.27R
DAYTON         CLEAR     50  48  93 CALM      30.27S
$$

SKY/WX REPORTED AS FAIR MEANS FEW OR NO CLOUDS BELOW
12 THOUSAND FEET.





USA.gov is the U.S. government's official web portal to all federal, state and local government web resources and services.